EW8829 Weather Reports


Display with metric or nautical units.
time (UTC)temp
F
wind
direction
speed
MPH
gust
MPH
rain 1hr
in
rain 24hr
in
rain mn
in
humidity
%
barometer
mb
20260903033144 67 2 1.0 2.0 0.09 0.72 0.72 99 1014.3
20260903032639 67 121 2.0 2.0 0.12 0.71 0.71 99 1014.6
20260903032134 67 252 0.0 2.0 0.12 0.70 0.70 99 1015.0
20260903031630 68 72 1.0 2.0 0.14 0.69 0.69 99 1015.2
20260903031130 68 345 0.0 1.0 0.17 0.68 0.68 99 1015.3
20260903030626 67 26 0.0 3.0 0.19 0.67 0.67 99 1015.3
20260903030121 67 337 0.0 4.0 0.24 0.65 0.65 99 1015.2
20260903025616 68 54 1.0 2.0 0.24 0.63 0.63 99 1015.4
20260903025113 67 283 0.0 2.0 0.21 0.61 0.61 99 1015.7
20260903024613 67 19 2.0 2.0 0.21 0.59 0.59 99 1016.2
20260903024107 67 11 0.0 2.0 0.24 0.57 0.57 99 1016.7
20260903023603 67 103 1.0 2.0 0.24 0.56 0.56 99 1017.0
20260903023057 67 224 0.0 2.0 0.26 0.54 0.54 99 1016.8
20260903022557 67 313 2.0 3.0 0.21 0.51 0.51 99 1016.7
20260903022056 66 256 2.0 4.0 0.14 0.48 0.48 99 1016.3
20260903021550 66 136 0.0 3.0 0.14 0.47 0.47 99 1016.5
20260903021045 67 41 1.0 2.0 0.17 0.46 0.46 99 1016.6
20260903020541 67 118 3.0 6.0 1.32 0.45 0.45 99 1016.3
20260903020040 67 29 1.0 7.0 1.39 0.43 0.43 99 1016.8
20260903015536 68 318 4.0 11.0 0.42 0.27 0.27 99 1018.0
20260903015031 69 9 6.0 9.0 0.00 0.20 0.20 99 1017.6
20260903014530 69 49 2.0 2.0 0.00 0.20 0.20 99 1016.3
20260903014026 69 0 2.0 3.0 0.02 0.20 0.20 99 1016.1
20260903013525 69 285 1.0 2.0 0.05 0.20 0.20 99 1015.8
20260903013020 70 312 0.0 3.0 0.05 0.20 0.20 99 1015.6
20260903012519 70 264 0.0 1.0 0.05 0.19 0.19 99 1016.1
20260903012018 70 247 1.0 2.0 0.07 0.19 0.19 99 1016.1
20260903011513 70 223 3.0 5.0 0.07 0.18 0.18 99 1016.0
20260903011009 70 269 4.0 4.0 0.02 0.18 0.18 98 1015.7
20260903010504 70 224 1.0 6.0 0.00 0.17 0.17 98 1015.7
20260903010002 70 230 3.0 4.0 0.00 0.17 0.17 98 1015.7
20260903005456 70 225 3.0 3.0 0.00 0.17 0.17 98 1015.3
20260903004952 70 237 4.0 5.0 0.00 0.17 0.17 98 1015.2
20260903004447 71 186 2.0 4.0 0.02 0.17 0.17 98 1014.7
20260903003943 71 115 3.0 3.0 0.05 0.17 0.17 97 1014.9
20260903003442 71 132 3.0 5.0 0.02 0.17 0.17 96 1015.2
20260903002937 71 48 4.0 4.0 0.00 0.17 0.17 96 1014.9
20260903002427 71 165 4.0 4.0 0.00 0.17 0.17 96 1014.9
20260903001926 71 28 2.0 3.0 0.00 0.17 0.17 96 1015.1
20260903001426 71 321 2.0 4.0 0.00 0.17 0.17 95 1015.2
20260903000925 71 250 3.0 4.0 0.00 0.17 0.17 95 1015.4
20260903000421 71 246 3.0 6.0 0.00 0.17 0.17 96 1015.1
20260902235919 71 315 0.0 3.0 0.00 0.17 0.17 96 1014.9
20260902235414 71 263 2.0 5.0 0.00 0.17 0.17 96 1015.2
20260902234909 72 272 2.0 4.0 0.00 0.17 0.17 96 1015.4
20260902234404 72 320 2.0 3.0 0.00 0.17 0.17 96 1015.2
20260902233902 72 285 0.0 3.0 0.00 0.17 0.17 96 1015.6
20260902233357 72 269 0.0 2.0 0.00 0.17 0.17 96 1015.5
20260902232855 72 284 1.0 2.0 0.00 0.17 0.17 96 1015.3
20260902232351 72 89 0.0 0.0 0.00 0.17 0.17 96 1015.2
20260902231850 72 226 3.0 6.0 0.00 0.17 0.17 95 1015.5
20260902231345 72 37 0.0 2.0 0.00 0.17 0.17 96 1015.2
20260902230840 72 45 2.0 3.0 0.00 0.17 0.17 95 1015.3
20260902230340 72 157 2.0 3.0 0.00 0.17 0.17 95 1015.3
20260902225839 72 236 0.0 2.0 0.00 0.17 0.17 95 1015.0
20260902225335 72 129 1.0 5.0 0.00 0.17 0.17 95 1014.9
20260902224833 72 157 0.0 2.0 0.00 0.17 0.17 96 1014.7
20260902224328 72 239 2.0 4.0 0.00 0.17 0.17 95 1014.9
20260902223825 72 118 1.0 4.0 0.00 0.17 0.17 95 1014.7
20260902223320 72 156 0.0 3.0 0.00 0.17 0.17 95 1014.9
20260902222819 72 182 3.0 3.0 0.00 0.17 0.17 95 1014.6
20260902222318 72 154 2.0 5.0 0.00 0.17 0.17 96 1014.7
20260902221812 72 128 2.0 2.0 0.00 0.17 0.17 95 1014.9
20260902221312 72 153 1.0 10.0 0.00 0.17 0.17 96 1015.1
20260902220808 72 249 0.0 3.0 0.00 0.17 0.17 96 1015.1
20260902220307 72 132 3.0 6.0 0.00 0.17 0.17 96 1015.2
20260902215802 73 116 0.0 5.0 0.00 0.17 0.17 95 1015.5
20260902215257 73 59 1.0 5.0 0.00 0.17 0.17 95 1015.5
20260902214753 72 334 0.0 4.0 0.00 0.17 0.17 95 1015.3
20260902214252 72 117 0.0 4.0 0.00 0.17 0.17 97 1015.7
20260902213748 72 98 1.0 4.0 0.00 0.17 0.17 96 1015.7
20260902213248 72 184 1.0 2.0 0.00 0.17 0.17 97 1015.7
20260902212747 72 235 0.0 3.0 0.00 0.17 0.17 96 1015.8
20260902212244 72 236 0.0 2.0 0.00 0.17 0.17 96 1016.0
20260902211739 72 35 2.0 2.0 0.00 0.17 0.17 96 1015.7
20260902211235 72 97 0.0 3.0 0.00 0.17 0.17 96 1015.5
20260902210729 72 192 1.0 2.0 0.00 0.17 0.17 96 1016.0
20260902210224 72 204 3.0 7.0 0.00 0.17 0.17 95 1015.9
20260902205722 73 206 3.0 5.0 0.00 0.17 0.17 95 1015.9
20260902205218 72 240 3.0 9.0 0.00 0.17 0.17 95 1016.1
20260902204713 73 265 2.0 10.0 0.00 0.17 0.17 96 1016.2
20260902204208 73 257 4.0 4.0 0.00 0.17 0.17 96 1016.0
20260902203703 73 186 0.0 5.0 0.00 0.17 0.17 96 1015.7
20260902203158 73 207 0.0 6.0 0.00 0.17 0.17 96 1015.6
20260902202653 72 114 1.0 4.0 0.00 0.17 0.17 97 1015.6
20260902202150 72 58 1.0 2.0 0.00 0.17 0.17 96 1015.9
20260902201646 72 146 1.0 4.0 0.00 0.17 0.17 96 1015.7
20260902201144 72 132 0.0 4.0 0.00 0.17 0.17 97 1015.6
20260902200639 72 144 1.0 6.0 0.00 0.17 0.17 97 1015.9
20260902200136 72 141 4.0 6.0 0.00 0.17 0.17 97 1015.8
20260902195631 72 236 4.0 4.0 0.00 0.17 0.17 97 1016.1
20260902195130 72 214 0.0 4.0 0.00 0.17 0.17 98 1016.3
20260902194629 72 337 0.0 2.0 0.00 0.17 0.17 98 1016.6
20260902194124 72 346 2.0 3.0 0.00 0.17 0.17 97 1016.4
20260902193621 72 265 3.0 4.0 0.00 0.17 0.17 97 1016.3
20260902193120 72 238 3.0 4.0 0.00 0.17 0.17 97 1016.3
20260902192619 72 67 2.0 3.0 0.00 0.17 0.17 98 1016.5
20260902192118 72 209 1.0 2.0 0.00 0.17 0.17 98 1016.6
20260902191613 72 301 1.0 2.0 0.00 0.17 0.17 98 1016.6
20260902191107 72 227 0.0 3.0 0.00 0.17 0.17 97 1016.8
20260902190603 72 256 1.0 2.0 0.00 0.17 0.17 97 1016.7
20260902190058 72 269 0.0 2.0 0.00 0.17 0.17 97 1016.7
20260902185554 72 139 2.0 4.0 0.00 0.17 0.17 97 1016.7
20260902185050 72 146 0.0 2.0 0.00 0.17 0.17 98 1016.6
20260902184544 71 315 0.0 0.0 0.00 0.17 0.17 98 1016.6
20260902184040 71 330 2.0 2.0 0.00 0.17 0.17 99 1016.4
20260902183537 71 252 0.0 2.0 0.00 0.17 0.17 98 1016.6
20260902183033 71 335 2.0 3.0 0.00 0.17 0.17 98 1016.5
20260902182528 71 112 3.0 4.0 0.00 0.17 0.17 98 1016.5
20260902182024 71 225 2.0 4.0 0.00 0.17 0.17 98 1016.6
20260902181520 71 106 3.0 4.0 0.00 0.17 0.17 98 1016.5
20260902181014 71 252 1.0 3.0 0.00 0.17 0.17 99 1016.7
20260902180514 71 165 1.0 5.0 0.00 0.17 0.17 98 1016.8
20260902180010 71 218 2.0 4.0 0.00 0.17 0.17 97 1017.0
20260902175505 71 256 2.0 4.0 0.00 0.17 0.17 98 1017.0
20260902175001 71 303 2.0 8.0 0.00 0.17 0.17 97 1017.2
20260902174457 72 131 2.0 3.0 0.00 0.17 0.17 98 1017.2
20260902173952 71 248 3.0 4.0 0.00 0.17 0.17 98 1017.2
20260902173452 72 64 2.0 2.0 0.00 0.17 0.17 99 1017.3
20260902172947 71 159 2.0 3.0 0.00 0.17 0.17 99 1017.3
20260902172446 71 211 1.0 2.0 0.00 0.17 0.17 99 1017.4
20260902171942 71 234 2.0 4.0 0.00 0.17 0.17 99 1017.5
20260902171437 70 243 3.0 4.0 0.00 0.17 0.17 99 1017.6
20260902170933 71 97 3.0 6.0 0.00 0.17 0.17 99 1017.6
20260902170428 71 82 2.0 4.0 0.00 0.17 0.17 99 1017.6
20260902165924 71 291 1.0 3.0 0.00 0.17 0.17 99 1017.7
20260902165422 71 103 4.0 5.0 0.00 0.17 0.17 99 1017.5
20260902164918 71 115 2.0 4.0 0.00 0.17 0.17 99 1017.6
20260902164418 71 76 0.0 2.0 0.00 0.17 0.17 99 1017.5
20260902163917 71 61 2.0 2.0 0.00 0.17 0.17 99 1017.7
20260902163413 72 15 2.0 2.0 0.00 0.17 0.17 99 1017.5
20260902162910 72 88 2.0 6.0 0.00 0.17 0.17 99 1017.7
20260902162406 72 37 0.0 1.0 0.00 0.17 0.17 99 1017.8
20260902161905 72 66 1.0 2.0 0.00 0.17 0.17 99 1017.6
20260902161400 72 57 1.0 2.0 0.00 0.17 0.17 99 1017.6
20260902160857 72 4 0.0 2.0 0.00 0.17 0.17 99 1017.7
20260902160352 71 269 0.0 2.0 0.00 0.17 0.17 99 1017.2
20260902155850 71 198 0.0 3.0 0.00 0.17 0.17 99 1017.4
20260902155349 71 194 0.0 4.0 0.00 0.17 0.17 99 1017.3
20260902154844 71 215 0.0 4.0 0.02 0.17 0.17 99 1017.2
20260902154340 71 22 0.0 2.0 0.12 0.17 0.17 99 1017.1
20260902153839 71 89 0.0 2.0 0.17 0.16 0.16 99 1017.3
20260902153338 71 54 0.0 2.0 0.07 0.15 0.15 99 1017.3
20260902152834 71 62 2.0 3.0 0.05 0.13 0.13 99 1017.2
20260902152330 71 136 0.0 2.0 0.12 0.13 0.13 99 1017.3
20260902151825 71 10 0.0 1.0 0.17 0.13 0.13 99 1017.3
20260902151320 70 5 2.0 2.0 0.14 0.11 0.11 99 1017.5
20260902150815 70 133 1.0 3.0 0.12 0.10 0.10 99 1017.5
20260902150311 70 315 1.0 2.0 0.09 0.09 0.09 99 1017.5
20260902145810 71 95 1.0 2.0 0.02 0.08 0.08 99 1017.5
20260902145306 71 348 2.0 3.0 0.00 0.07 0.07 99 1017.5
20260902144801 71 171 0.0 3.0 0.02 0.07 0.07 99 1017.7
20260902144257 71 200 0.0 2.0 0.02 0.07 0.07 99 1017.5
20260902143752 71 89 0.0 1.0 0.07 0.07 0.07 99 1017.2
20260902143247 71 23 0.0 2.0 0.17 0.07 0.07 99 1017.3
20260902142742 71 6 1.0 2.0 0.17 0.06 0.06 99 1017.0
20260902142238 71 215 4.0 5.0 0.12 0.04 0.04 99 1017.2
20260902141738 71 310 3.0 5.0 0.07 0.03 0.03 99 1017.4
20260902141235 72 274 1.0 2.0 0.12 0.02 0.02 99 1017.2
20260902140734 72 194 1.0 3.0 0.09 0.02 0.02 99 1017.5
20260902140229 72 237 2.0 3.0 0.00 0.00 0.00 99 1017.3
20260902135729 72 121 0.0 2.0 0.00 0.00 0.00 99 1017.5
20260902135225 72 135 0.0 2.0 0.00 0.00 0.00 99 1017.8
20260902134724 72 163 1.0 3.0 0.00 0.00 0.00 99 1018.1
20260902134219 72 236 2.0 4.0 0.00 0.00 0.00 99 1018.0
20260902133715 71 192 1.0 5.0 0.00 0.00 0.00 99 1017.8
20260902133214 71 291 3.0 3.0 0.00 0.00 0.00 99 1018.0
20260902132709 71 269 0.0 6.0 0.00 0.00 0.00 99 1017.6
20260902132204 71 23 0.0 2.0 0.00 0.00 0.00 99 1017.3
20260902131700 70 240 3.0 9.0 0.00 0.00 0.00 99 1016.8
20260902131156 70 255 4.0 4.0 0.00 0.00 0.00 99 1017.6
20260902130651 70 293 2.0 3.0 0.00 0.00 0.00 99 1017.4
20260902130147 70 269 0.0 2.0 0.00 0.00 0.00 99 1017.0
20260902125642 70 349 0.0 3.0 0.00 0.00 0.00 99 1017.2
20260902125138 70 133 0.0 2.0 0.00 0.00 0.00 99 1017.1
20260902124634 70 251 0.0 3.0 0.00 0.00 0.00 99 1017.2
20260902124134 70 50 0.0 2.0 0.00 0.00 0.00 99 1017.3
20260902123631 69 302 0.0 2.0 0.00 0.00 0.00 99 1017.4
20260902123130 69 320 3.0 3.0 0.00 0.00 0.00 99 1017.3
20260902122625 69 342 2.0 2.0 0.00 0.00 0.00 99 1017.0
20260902122121 69 15 0.0 1.0 0.00 0.00 0.00 99 1016.9
20260902121620 69 116 0.0 1.0 0.00 0.00 0.00 99 1016.8
20260902121116 69 129 0.0 1.0 0.00 0.00 0.00 99 1016.9
20260902120612 69 71 1.0 1.0 0.00 0.00 0.00 99 1016.9
20260902120109 69 73 1.0 1.0 0.00 0.00 0.00 99 1016.7
20260902115603 69 348 1.0 2.0 0.00 0.00 0.00 99 1016.9
20260902115059 68 58 1.0 1.0 0.00 0.00 0.00 99 1016.7
20260902114554 68 10 1.0 2.0 0.00 0.00 0.00 99 1016.6
20260902114054 68 124 0.0 0.0 0.00 0.00 0.00 99 1016.4
20260902113550 68 50 0.0 1.0 0.00 0.00 0.00 99 1016.7
20260902113044 68 269 0.0 2.0 0.00 0.00 0.00 99 1016.8
20260902112540 67 299 0.0 2.0 0.00 0.00 0.00 99 1016.6
20260902112037 67 38 0.0 0.0 0.00 0.00 0.00 99 1016.7
20260902111533 67 19 0.0 0.0 0.00 0.00 0.00 99 1016.6
20260902111028 67 302 0.0 0.0 0.00 0.00 0.00 99 1016.4
20260902110524 67 296 0.0 2.0 0.00 0.00 0.00 99 1016.5
20260902110019 67 261 1.0 1.0 0.00 0.00 0.00 99 1016.4
20260902105514 67 310 0.0 1.0 0.00 0.00 0.00 99 1016.6
20260902105013 67 309 1.0 2.0 0.00 0.00 0.00 99 1016.6
20260902104509 67 289 0.0 1.0 0.00 0.00 0.00 99 1016.8
20260902104004 67 50 0.0 0.0 0.00 0.00 0.00 99 1016.5
20260902103459 67 50 0.0 0.0 0.00 0.00 0.00 99 1016.9
20260902102954 67 66 0.0 0.0 0.00 0.00 0.00 99 1016.8
20260902102451 67 0 0.0 0.0 0.00 0.00 0.00 99 1016.9
20260902101947 67 275 0.0 1.0 0.00 0.00 0.00 99 1016.9
20260902101442 67 309 0.0 1.0 0.00 0.00 0.00 99 1016.9
20260902100941 67 235 0.0 0.0 0.00 0.00 0.00 99 1016.8
20260902100436 67 76 0.0 1.0 0.00 0.00 0.00 99 1016.8
20260902095936 67 60 0.0 1.0 0.00 0.00 0.00 99 1017.0
20260902095430 68 104 0.0 1.0 0.00 0.00 0.00 99 1016.9
20260902094930 68 37 0.0 1.0 0.00 0.00 0.00 99 1016.8
20260902094426 68 64 0.0 0.0 0.00 0.00 0.00 99 1017.0
20260902093920 68 54 0.0 1.0 0.00 0.00 0.00 99 1016.9
20260902093415 68 254 0.0 1.0 0.00 0.00 0.00 99 1016.7
20260902092914 68 269 0.0 1.0 0.00 0.00 0.00 99 1016.8
20260902092410 68 299 0.0 2.0 0.00 0.00 0.00 99 1016.6
20260902091904 68 113 0.0 1.0 0.00 0.00 0.00 99 1016.6
20260902091359 68 69 0.0 0.0 0.00 0.00 0.00 99 1016.9
20260902090856 68 69 0.0 0.0 0.00 0.00 0.00 99 1016.7
20260902090356 68 126 0.0 1.0 0.00 0.00 0.00 99 1016.6
20260902085854 68 113 0.0 0.0 0.00 0.00 0.00 99 1017.0
20260902085350 68 113 0.0 0.0 0.00 0.00 0.00 99 1016.9
20260902084846 68 89 1.0 1.0 0.00 0.00 0.00 99 1016.9
20260902084342 68 89 0.0 1.0 0.00 0.00 0.00 99 1017.0
20260902083837 68 50 0.0 0.0 0.00 0.00 0.00 99 1017.1
20260902083337 68 287 0.0 1.0 0.00 0.00 0.00 99 1016.9
20260902082832 68 230 0.0 0.0 0.00 0.00 0.00 99 1017.0
20260902082328 68 142 0.0 2.0 0.00 0.00 0.00 99 1016.9
20260902081824 68 142 0.0 0.0 0.00 0.00 0.00 99 1016.6
20260902081320 68 269 0.0 0.0 0.00 0.00 0.00 99 1016.6
20260902080815 68 269 0.0 0.0 0.00 0.00 0.00 99 1016.4
20260902080312 68 89 0.0 0.0 0.00 0.00 0.00 99 1016.5
20260902075811 68 89 0.0 0.0 0.00 0.00 0.00 99 1016.7
20260902075308 68 89 0.0 0.0 0.00 0.00 0.00 99 1016.7
20260902074808 68 190 0.0 2.0 0.00 0.00 0.00 99 1016.6
20260902074303 68 264 1.0 2.0 0.00 0.00 0.00 99 1016.6
20260902073758 68 217 0.0 1.0 0.00 0.00 0.00 99 1016.5
20260902073254 68 116 0.0 1.0 0.00 0.00 0.00 99 1016.6
20260902072750 68 36 0.0 1.0 0.00 0.00 0.00 99 1016.7
20260902072245 68 37 0.0 0.0 0.00 0.00 0.00 99 1016.7
20260902071742 68 50 0.0 1.0 0.00 0.00 0.00 99 1016.6
20260902071236 68 314 2.0 2.0 0.00 0.00 0.00 99 1016.6
20260902070733 68 296 0.0 2.0 0.00 0.00 0.00 99 1016.4
20260902070232 67 214 0.0 2.0 0.00 0.00 0.00 99 1016.6
20260902065731 68 134 0.0 1.0 0.00 0.00 0.00 99 1016.8
20260902065227 68 148 0.0 1.0 0.00 0.00 0.00 99 1016.7
20260902064722 68 137 2.0 2.0 0.00 0.00 0.00 99 1016.8
20260902064218 68 173 0.0 0.0 0.00 0.00 0.00 99 1017.0
20260902063714 68 129 0.0 0.0 0.00 0.00 0.00 99 1016.9
20260902063208 68 197 0.0 0.0 0.00 0.00 0.00 99 1016.7
20260902062707 68 229 0.0 1.0 0.00 0.00 0.00 99 1016.7
20260902062202 69 44 0.0 0.0 0.00 0.00 0.00 99 1016.7
20260902061701 69 113 0.0 0.0 0.00 0.00 0.00 99 1016.6
20260902061157 69 322 0.0 1.0 0.00 0.00 0.00 99 1016.9
20260902060653 69 246 0.0 2.0 0.00 0.00 0.00 99 1016.8
20260902060149 69 322 0.0 0.0 0.00 0.00 0.00 99 1016.7
20260902055645 69 15 0.0 0.0 0.00 0.00 0.00 99 1016.8
20260902055140 69 15 0.0 0.0 0.00 0.00 0.00 99 1016.9
20260902054635 69 156 0.0 0.0 0.00 0.00 0.00 99 1016.9
20260902054131 69 322 0.0 0.0 0.00 0.00 0.00 99 1016.7
20260902053626 69 15 0.0 1.0 0.00 0.00 0.00 99 1016.8
20260902053121 69 193 0.0 2.0 0.00 0.00 0.00 99 1016.8
20260902052621 70 352 0.0 0.0 0.00 0.00 0.00 99 1016.6
20260902052117 70 352 0.0 0.0 0.00 0.00 0.00 99 1016.7
20260902051616 70 50 0.0 0.0 0.00 0.00 0.00 99 1016.6
20260902051115 70 0 0.0 2.0 0.00 0.00 0.00 99 1016.8
20260902050609 70 265 1.0 1.0 0.00 0.00 0.00 99 1016.6
20260902050105 70 50 0.0 0.0 0.00 0.00 0.00 99 1016.7
20260902045600 70 50 0.0 0.0 0.00 0.00 0.00 99 1016.7
20260902045056 70 142 0.0 0.0 0.00 0.00 0.00 99 1016.5
20260902044551 70 50 0.0 0.0 0.00 0.00 0.00 99 1016.7
20260902044046 70 66 0.0 1.0 0.00 0.00 0.00 99 1016.3
20260902043542 70 24 0.0 1.0 0.00 0.00 0.00 99 1016.5
20260902043036 70 309 0.0 2.0 0.00 0.00 0.00 99 1016.3
20260902042536 69 259 2.0 2.0 0.00 0.00 0.00 99 1016.5
20260902042031 69 310 0.0 1.0 0.00 0.00 0.00 99 1016.2
20260902041525 69 316 0.0 1.0 0.00 0.00 0.00 99 1016.1
20260902041020 69 37 0.0 0.0 0.00 0.00 0.00 99 1016.3
20260902040521 69 15 0.0 1.0 0.00 0.00 0.00 99 1016.2
20260902040020 69 308 1.0 2.0 0.00 0.00 0.00 99 1016.2
20260902035514 70 72 0.0 0.0 0.00 1.02 1.02 99 1016.2
20260902035015 70 217 0.0 0.0 0.00 1.02 1.02 99 1016.1
20260902034509 70 147 0.0 1.0 0.00 1.02 1.02 99 1016.2
20260902034008 70 265 1.0 2.0 0.00 1.02 1.02 99 1016.2
20260902033507 70 307 0.0 1.0 0.00 1.02 1.02 99 1015.9